Retour au catalogue

COSMOS 1275 DEB

ActifPO
NORAD 42223·DEBRIS·🇷🇺 Russia

Lancé Jun 4, 1981 depuis Plesetsk Cosmodrome

Loading…

Prochains Passages (prochaines 24 heures)

TLE

FraisSource: Space-Track

Époque: Sep 14, 2026, 06:10 UTC

1 42223U 81053UP  26257.25702100  .00002904  00000-0  92864-3 0  9996
2 42223  82.8572 246.9219 0035591 185.3052 174.7768 14.39023041615961

Suivez COSMOS 1275 DEB en temps réel avec AllMySat

Download on the App Store